Regional Weather Roundup
Issued by NWS Charleston, SC

Current Version | Previous Version | Graphics & Text | Print | Product List | Glossary On
Versions: 1 2 3 4 5 6 7 8 9 10 11 12 13 14 15 16 17 18 19 20 21 22 23 24 25 26 27 28 29 30 31 32 33 34 35 36 37 38 39 40 41 42 43 44 45 46 47 48 49 50
000
ASUS42 KCHS 241825
RWRCHS

REGIONAL WEATHER ROUNDUP
NATIONAL WEATHER SERVICE CHARLESTON SC
200 PM EDT THU APR 24 2014

NOTE: "FAIR" INDICATES FEW OR NO CLOUDS BELOW 12,000 FEET WITH NO
SIGNIFICANT WEATHER AND/OR OBSTRUCTIONS TO VISIBILITY.

NOT ALL STATIONS ARE QUALITY CONTROLLED BY THE NATIONAL
WEATHER SERVICE. USE DATA WITH CAUTION...ESPECIALLY
DEWPOINT OBSERVATIONS.

SCZ027-030-031-034>040-042>050-241900-
...SOUTH CAROLINA...

CITY           SKY/WX    TMP DP  RH WIND       PRES   REMARKS
N CHARLESTON   MOSUNNY   77  50  38 E14G22    30.05F
6HR MIN TEMP:  59; 6HR MAX TEMP:  78;

WATERFRONT PRK   N/A     66 N/A N/A E15G21      N/A
FORT JOHNSON     N/A     68  57  68 E6G16     30.11F
MOUNT PLEASANT LGT RAIN  70  55  60 E8        30.06S
JOHNS ISLAND   CLEAR     72  57  60 E18       30.06F
PINOPOLIS        N/A     75  50  41 E6        29.98F
MONCKS CORNER  FAIR      77  55  47 SE8       30.04F
SUMMERVILLE    NOT AVBL
BEAUFORT MCAS  MOSUNNY   75  56  51 S15       30.04S
6HR MIN TEMP:  67; 6HR MAX TEMP:  77;

BEAUFORT ARPT  FAIR      72  61  68 E12G17    30.03F
HILTON HEAD IS SUNNY     68  57  68 NE14G22   30.05F
GEORGETOWN     NOT AVBL
WALTERBORO     CLEAR     79  57  47 E12       30.02F
ORANGEBURG     SUNNY     73  43  33 VRB5      30.05F
6HR MIN TEMP:  55; 6HR MAX TEMP:  74;

BARNWELL       FAIR      79  46  31 SE8       30.02F
AIKEN          FAIR      75  48  38 SE7       30.05F
MANNING        FAIR      77  46  33 E3        30.04F
KINGSTREE      NOT AVBL
COLUMBIA       SUNNY     74  41  30 E6        30.04F
6HR MIN TEMP:  58; 6HR MAX TEMP:  75;

SUMTER         SUNNY     73  40  29 E10       30.04F
6HR MIN TEMP:  54; 6HR MAX TEMP:  73;

FLORENCE       SUNNY     72  39  30 VRB3      30.07F
6HR MIN TEMP:  53; 6HR MAX TEMP:  73;

MYRTLE BEACH   NOT AVBL
N MYRTLE BEACH SUNNY     67  47  48 E14       30.09F
6HR MIN TEMP:  54; 6HR MAX TEMP:  68;


$$

GAZ063-065-086>088-099>101-113>116-118-119-134-136>141-150-241900-
...GEORGIA...

CITY           SKY/WX    TMP DP  RH WIND       PRES   REMARKS
SAVANNAH ARPT  MOSUNNY   79  60  52 SE18      30.01F
6HR MIN TEMP:  60; 6HR MAX TEMP:  82;

HUNTER AAF     SUNNY     76  63  62 E16       30.01S
6HR MIN TEMP:  60; 6HR MAX TEMP:  79;

FORT STEWART   PTSUNNY   83  60  44 CALM      29.98F
6HR MIN TEMP:  57; 6HR MAX TEMP:  84;

STATESBORO     NOT AVBL
SYLVANIA       CLEAR     82  51  33 CALM      30.00F
CLAXTON        FAIR      82  55  39 S7        29.99F
THOMSON        SUNNY     77  49  37 N3        30.04F
AUGUSTA-BUSH   SUNNY     78  45  30 E6        30.01F
6HR MIN TEMP:  52; 6HR MAX TEMP:  78;

AUGUSTA-DANIEL SUNNY     77  41  27 VRB5      30.02F
SWAINSBORO     FAIR      81  50  34 SE9       30.00F
VIDALIA        SUNNY     82  50  32 SW8       29.99F
ALMA           PTSUNNY   83  54  36 VRB3      29.98F
6HR MIN TEMP:  60; 6HR MAX TEMP:  84;

WAYCROSS       NOT AVBL
JESUP          MOCLDY    81  55  41 SW3       29.99F
BRUNSWICK      PTSUNNY   82  61  47 SE7       30.00F
SAINT SIMONS     N/A     77  63  61 E10       30.00F
6HR MIN TEMP:  67; 6HR MAX TEMP:  78;


$$

SCZ027-028-034-036>038-045-046-048>050-GAZ119-141-241900-
...LAKE AND SUPPLEMENTAL COASTAL OBSERVATIONS...

STATION/POSITION TIME  TEMP    WIND        PRES    WAVE   SWELL
                       AIR SEA DIR/SP/G            HT/PER HT/PER/DIR
                 (UTC) (F)     (DEG/KT/KT) (MB)    (FT/S) (FT/S/D)
UPR LAKE MARION  NOT AVBL
WINYAH BAY       1800   63      60/ 14     1018.0S
LAKE MURRAY      1800   70     110/  3/  6 1016.9F
ACE BASIN NERRS  1800   76      70/  6     1017.0S
FORT PULASKI     1800   66 61   60/ 17/ 19 1017.3F
SAPELO ISLAND    1800   79      90/  9     1017.0S

$$

ANZ835-935-AMZ111-154-330-350-352-354-374-450-454-472-241900-
...C-MAN AND BUOY OBSERVATIONS...

STATION/POSITION TIME  TEMP    WIND        PRES    WAVE   SWELL
                       AIR SEA DIR/SP/G            HT/PER HT/PER/DIR
                 (UTC) (F)     (DEG/KT/KT) (MB)    (FT/S) (FT/S/D)
FOLLY BEACH CMAN 1800   64      60/ 20/ 22 1018.1F
BUOY 41004       1800   68 71   50/ 17/ 19 1016.7F   4/ 5   2/ 8
BUOY 41008       1800   70 70  110/  8/  8 1016.0F   1/ 8   2/110/ 8
5E ST. MARYS GA  1800      70                N/A     1/ 8
FRYING PAN BUOY  1800   63 68   60/ 17/ 21 1018.3F   4/ 5   2/ 80/ 9
BUOY 41025       NOT AVBL
CAPE LOOKOUT NC  1800   57      70/  9/ 10 1019.0F
BUOY 41002       NOT AVBL
BUOY 41010       1800   74 76  150/  8/ 10 1017.2F   2/ 8   2/ 80/ 8
BUOY 41012       NOT AVBL
ST AUGUSTINE FL  1800   70     130/ 10/ 11 1016.3F
CAPERS NEARSHORE NOT AVBL
FRIPP NEARSHORE  1700   66      90/ 19/ 23   N/A


$$



USA.gov is the U.S. government's official web portal to all federal, state and local government web resources and services.